This demonstration page uses our WeatherBlox Daily Observations layout. Learn more.

Left ArrowRight Arrow

39.95238, -75.16362

Hourly Observations for August 5, 2022

Temp ( °F °C ) Dew Point ( °F °C ) Humidity (%) Winds ( mph kmh ) Pressure ( in mb ) Visibility ( mi km ) Precip ( " mm )
12:06 am 00:06 Cloudy with Light Rain 76 24.4 72 22.2 88 88 Calm 30.11 1020 10 16 0.00 0.00
12:54 am 00:54 Cloudy 76 24.4 72 22.2 88 88 WSW 8 13 30.10 1019 10 16 0.00 0.00
1:54 am 01:54 Cloudy 75 23.9 69 20.6 82 82 W 10 17 30.10 1019 10 16 0.00 0.00
2:54 am 02:54 Mostly Cloudy 75 23.9 70 21.1 84 84 W 6 9 30.09 1019 10 16 0.00 0.00
3:54 am 03:54 Mostly Cloudy 75 23.9 70 21.1 84 84 WNW 5 7 30.09 1019 10 16 0.00 0.00
4:54 am 04:54 Cloudy 75 23.9 70 21.1 84 84 SW 6 9 30.11 1020 10 16 0.00 0.00
5:40 am 05:40 Mostly Cloudy 75 23.9 72 22.2 90 90 WSW 8 13 30.12 1020 10 16 0.00 0.00
5:54 am 05:54 Mostly Cloudy 75 23.9 72 22.2 90 90 SW 7 11 30.12 1020 10 16 0.00 0.00
6:54 am 06:54 Mostly Cloudy 76 24.4 72 22.2 88 88 W 6 9 30.14 1021 10 16 0.00 0.00
7:54 am 07:54 Mostly Cloudy 77 25 72 22.2 85 85 WSW 6 9 30.15 1021 10 16 0.00 0.00
8:54 am 08:54 Mostly Cloudy 78 25.6 71 21.7 79 79 WSW 10 17 30.16 1022 10 16 0.00 0.00
9:54 am 09:54 Cloudy 80 26.7 71 21.7 74 74 WSW 9 15 30.17 1022 10 16 0.00 0.00
10:54 am 10:54 Mostly Cloudy 81 27.2 71 21.7 72 72 SSW 6 9 30.18 1022 10 16 0.00 0.00
11:54 am 11:54 Mostly Cloudy 83 28.3 72 22.2 70 70 SW 8 13 30.18 1022 10 16 0.00 0.00
12:54 pm 12:54 Mostly Cloudy 86 30 71 21.7 61 61 SW 10 17 30.17 1022 10 16 0.00 0.00
1:54 pm 13:54 Mostly Cloudy 86 30 71 21.7 61 61 SW 9 15 30.16 1022 10 16 0.00 0.00
2:54 pm 14:54 Mostly Cloudy 88 31.1 70 21.1 55 55 SW 8 13 30.14 1021 10 16 0.00 0.00
3:54 pm 15:54 Partly Cloudy 90 32.2 70 21.1 52 52 SW 9 15 30.13 1020 10 16 0.00 0.00
4:54 pm 16:54 Mostly Cloudy 91 32.8 71 21.7 52 52 WSW 10 17 30.12 1020 10 16 0.00 0.00
5:54 pm 17:54 Partly Cloudy 92 33.3 72 22.2 52 52 WSW 9 15 30.11 1020 10 16 0.00 0.00
6:54 pm 18:54 Mostly Cloudy 89 31.7 74 23.3 61 61 WSW 10 17 30.12 1020 10 16 0.00 0.00
7:54 pm 19:54 Mostly Cloudy 87 30.6 74 23.3 65 65 SSW 7 11 30.13 1020 10 16 0.00 0.00
8:54 pm 20:54 Mostly Cloudy 86 30 73 22.8 65 65 SSW 9 15 30.16 1021 10 16 0.00 0.00
9:54 pm 21:54 Mostly Cloudy with Light Rain 83 28.3 73 22.8 72 72 SSW 8 13 30.18 1022 10 16 0.00 0.00
10:54 pm 22:54 Mostly Cloudy 82 27.8 72 22.2 72 72 SW 14 22 30.18 1022 10 16 0.00 0.00
11:54 pm 23:54 Mostly Cloudy 80 26.7 70 21.1 71 71 W 9 15 30.17 1022 10 16 0.00 0.00

Powered by AerisWeather